Regional Weather Roundup
Issued by NWS

Home | Current Version | Previous Version | Text Only | Print | Product List | Glossary On
Versions: 1 2 3 4 5 6 7 8 9 10 11 12 13 14 15 16 17 18 19 20 21 22 23 24 25 26 27
000
ASUS44 KLIX 060411
RWRLA
LOUISIANA WEATHER ROUNDUP
NATIONAL WEATHER SERVICE NEW ORLEANS LA
1100 PM CDT THU MAY 05 2016

NOTE: "FAIR" INDICATES FEW OR NO CLOUDS BELOW 12,000 FEET WITH NO
      SIGNIFICANT WEATHER AND/OR OBSTRUCTIONS TO VISIBILITY.
      SKY/WX - SKY CONDITION AND SIGNIFICANT WEATHER.
      TMP - AIR TEMPERATURE.    DP   - DEWPOINT TEMPERATURE.
      RH  - RELATIVE HUMIDITY.  PRES - PRESSURE.
      HX  - HEAT INDEX.         WCI  - WIND CHILL INDEX.

*  THESE STATIONS ARE NOT NWS OR FAA STATIONS AND ARE NOT UNDER
   NWS QUALITY CONTROL.

LAZ040-048-061>063-065-066-069-060500-
SOUTHEAST LOUISIANA

CITY           SKY/WX    TMP DP  RH WIND       PRES   REMARKS
N.O. AUDUBON     N/A    N/A N/A N/A MISG        N/A
N.O. INTL ARPT PTCLDY    71  46  40 N14       29.98R
N.O. LAKEFRONT CLEAR     69  51  52 N21       29.98R
N.O. DOWNTOWN* FAIR      72  45  37 N8G20     29.98R
RESERVE*       FAIR      65  52  63 N3        29.99R
SLIDELL        PTCLDY    60  52  74 CALM      29.97R
BATON ROUGE    CLEAR     61  47  59 CALM      29.99R
BOOTHVILLE     CLEAR     72  51  47 N12G20    29.95R
BELLE CHASSE   CLEAR     69  47  45 N6        29.97R
BOGALUSA*      FAIR      58  51  77 CALM      29.99R
GALLIANO*      CLEAR     67  52  58 N9        29.97R
NEW ROADS*     FAIR      62  49  63 N6        30.00R
GONZALES*      FAIR      61  49  65 N3        29.98R
HAMMOND*       CLEAR     59  45  58 N3        29.98R
HOUMA*           N/A     63  49  60 N8        29.98R
PORT FOURCHON* CLEAR     72  54  53 N13       29.97R

$$

LAZ041-044-053-054-060500-
SOUTHWEST LOUISIANA

CITY           SKY/WX    TMP DP  RH WIND       PRES   REMARKS
LAKE CHARLES   CLEAR     68  47  46 N8        30.00R
LAFAYETTE      PTCLDY    64  57  78 CALM      30.00R
PATTERSON      NOT AVBL
SALT POINT       N/A     66  54  65 N3        29.97R
NEW IBERIA     CLEAR     66  50  56 N6        30.00R
CHENAULT AIRPK CLEAR     65  49  57 N5        30.00R

$$

LAZ027-028-060500-
CENTRAL LOUISIANA

CITY           SKY/WX    TMP DP  RH WIND       PRES   REMARKS
FORT POLK      CLEAR     58  52  80 N5        30.01R
ALEXANDRIA INT CLEAR     61  53  75 NW3       29.99R
ALEXANDRIA     CLEAR     56  52  86 CALM      30.01R

$$

LAZ001-002-060500-
NORTHWEST LOUISIANA

CITY           SKY/WX    TMP DP  RH WIND       PRES   REMARKS
SHREVEPORT     PTCLDY    61  52  72 CALM      30.00S
BARKSDALE AFB  PTCLDY    59  54  83 CALM      30.00R
DTN SHREVEPORT PTCLDY    64  54  69 CALM      30.01R

$$

LAZ014-016-060500-
NORTHEAST LOUISIANA

CITY           SKY/WX    TMP DP  RH WIND       PRES   REMARKS
MONROE         CLEAR     58  52  80 CALM      30.00R
TALLULAH       CLEAR     59  55  87 VRB6      30.00R

$$





USA.gov is the U.S. government's official web portal to all federal, state and local government web resources and services.